Tracking 27401 objects as of 3-Jun-2023
HD Live streaming from Space Station
objects crossing your sky now

SL-12 R/B(2)

Track SL-12 R/B(2) now!


NORAD ID: 21536
Int'l Code: 1991-046D
Perigee: 35,548.2 km
Apogee: 35,673.0 km
Inclination: 13.8 °
Period: 1,426.7 minutes
Semi major axis: 41981 km
RCS: 2.304 m2 (large)
Launch date: July 1, 1991
Source: Commonwealth of Independent States (former USSR) (CIS)
Launch site: TYURATAM MISSILE AND SPACE COMPLEX (TTMTR)

Note: This is a ROCKET BODY
Your satellite tracking list
Your tracking list is empty




NASA's NSSDC Master Catalog

Two Line Element Set (TLE):
1 21536U 91046D   23154.17336348  .00000119  00000-0  00000-0 0  9998
2 21536  13.7734 346.8674 0014871 202.2859 147.2834  1.00928718112594
Source of the keplerian elements: AFSPC